Flag for Germany Weather past 2 weeks in Wetzlar, Hesse, Germany

Now
46 °F

Rain. Low clouds.


Feels Like: 42 °F
Forecast: 37 / 43 °F
Wind: 8 mph from Southwest

Location: Giessen

Current Time: Mar 31, 2015 at 5:17:46 AM

Latest Report: Mar 31, 2015 at 5:00 AM


Visibility: 9 mi

Pressure: 29.41 "Hg

Humidity: 92%

Dew point: 44 °F

Location of WetzlarLocation

Historic Weather in Wetzlar — Graph

°F

Wetzlar temperature yesterday

Maximum temperature yesterday: 48 °F (at 1:00 PM)
Minimum temperature yesterday: 38 °F (at 11:00 PM)
Average temperature yesterday: 44 °F

Past Weeks' High & Low Weather Summary

 TemperatureHumidityPressure
High63 °F (Mar 18, 3:00 PM)100% (Mar 20, 7:00 AM)30.34 "Hg (Mar 20, 7:00 AM)
Low26 °F (Mar 23, 6:00 AM)35% (Mar 20, 5:00 PM)29.32 "Hg (Mar 29, 9:00 PM)
Average44 °F78%30.02 "Hg
* Reported Mar 16 3:00 AM — Mar 31 4:00 AM, Wetzlar, Weather by CustomWeather, © 2015

Note: Actual official high and low records may vary slightly from our data, if they occured in-between our weather recording intervals... More about our weather records

Advertising

Wetzlar weather history for previous 24 hours

 ConditionsComfort  
Time TempWeatherWind HumidityBarometerVisibility
4:00 AM
Tue, Mar 31
41 °FLight rain. Low clouds.6 mph96%29.50 "Hg6 mi
3:00 AM39 °FLight rain. Low clouds.5 mph95%29.60 "Hg7 mi
2:00 AM39 °FLight rain. Low clouds.7 mph90%29.71 "Hg9 mi
1:00 AM40 °FOvercast.3 mph72%29.78 "Hg22 mi
12:00 AM39 °FOvercast.3 mph71%29.81 "Hg31 mi
11:00 PM
Mon, Mar 30
38 °FOvercast.3 mph70%29.85 "Hg25 mi
10:00 PM40 °FClear.6 mph62%29.88 "Hg43 mi
9:00 PM42 °FClear.7 mph61%29.87 "Hg40 mi
8:00 PM43 °FPassing clouds.6 mph55%29.86 "Hg43 mi
7:00 PM45 °FScattered clouds.12 mph49%29.84 "Hg19 mi
6:00 PM47 °FPartly sunny.13 mph49%29.80 "Hg14 mi
5:00 PM44 °FScattered clouds.16 mph63%29.78 "Hg22 mi
4:00 PM45 °FSunny.12 mph64%29.74 "Hg8 mi
3:00 PM44 °FScattered clouds.10 mph79%29.72 "Hg11 mi
2:00 PM45 °FPartly sunny.12 mph60%29.69 "Hg19 mi
1:00 PM48 °FOvercast.10 mph52%29.65 "Hg25 mi
12:00 PM47 °FPartly sunny.5 mph66%29.62 "Hg22 mi
11:00 AM43 °FLight freezing rain. Partly sunny.16 mph73%29.60 "Hg14 mi
10:00 AM44 °FOvercast.10 mph68%29.57 "Hg25 mi
9:00 AM44 °FPassing clouds.9 mph70%29.55 "Hg19 mi
8:00 AM42 °FPartly sunny.9 mph73%29.53 "Hg19 mi
7:00 AM42 °FPassing clouds.9 mph77%29.50 "Hg37 mi
6:00 AM42 °FPassing clouds.9 mph78%29.44 "Hg40 mi
Weather by CustomWeather, © 2015

See weather overviewHow to use our weather pages